{"data":{"norad_id":65311,"intl_designator":"2025-187G","name":"HULIANWANG DIGUI-79","alt_names":[],"object_type":"PAYLOAD","status":"ACTIVE","operator":null,"country":"PRC","launch_date":"2025-08-25","launch_site_code":"WSC","launch_vehicle":null,"mission":null,"orbit_class":"UNKNOWN","rcs_meters":null,"size_class":null,"mass_kg":null,"dimensions":null,"purposes":[],"wikipedia_slug":null,"has_3d_model":false,"image_url":null,"decayed_at":null,"tle_current":{"epoch":"2026-05-25T03:58:37.953120Z","epoch_age_seconds":51009,"freshness":"FRESH","line1":"1 65311U 25187G   26145.16571705 -.00000092  00000+0  68428-4 0  9992","line2":"2 65311  50.0047 288.7089 0000624 101.1265 258.9677 13.29318807 36638","mean_motion":13.29318807,"eccentricity":6.24e-5,"inclination_deg":50.0047,"raan_deg":288.7089,"arg_perigee_deg":101.1265,"mean_anomaly_deg":258.9677,"bstar":6.8428e-5,"rev_number":3663,"period_min":108.3261586624,"perigee_km":1148.8640118653,"apogee_km":1149.8034402119,"semimajor_km":7527.4707260386,"source":"CELESTRAK","updated_at":"2026-05-25T13:38:05.300521Z"}}}